AirNav   Everest Fuels
 
 517 users online  

72PN Distribution Center Heliport
New Kingston, Pennsylvania, USA

GOING TO NEW KINGSTON?


FAA INFORMATION EFFECTIVE 16 JULY 2020

Location

FAA Identifier: 72PN
Lat/Long: 40-13-40.3190N 077-05-18.9220W
40-13.671983N 077-05.315367W
40.2278664,-77.0885894
(estimated)
Elevation: 454 ft. / 138 m (estimated)
Variation: 10W (1985)
Time zone: UTC -4 (UTC -5 during Standard Time)
Zip code: 17055

Heliport Operations

Heliport use: Private use. Permission required prior to landing
Activation date: 10/1981
Control tower: no
ARTCC: NEW YORK CENTER
FSS: WILLIAMSPORT FLIGHT SERVICE STATION
Attendance: UNATNDD
Wind indicator: yes
Segmented circle: no

Heliport Communications

WX ASOS at CXY (11 nm E): PHONE 717-770-0880
WX ASOS at MDT (15 nm E): 118.8 (717-944-1372)

Nearby radio navigation aids

VOR radial/distance  VOR name  Freq  Var
HARr201/4.5HARRISBURG VORTAC112.5010W
RAVr240/29.7RAVINE VORTAC114.6011W
SEGr203/35.0SELINSGROVE VOR/DME110.4008W
LRPr289/37.1LANCASTER VOR/DME117.3009W

 
NDB name  Hdg/Dist  Freq  Var  ID
LATLE319/4.821911WCX -.-. -..-
ENOLA274/8.720411WMD -- -..
BELLGROVE253/27.532810WBZJ -... --.. .---

Heliport Services

Runway Information

Helipad H1

Dimensions: 65 x 65 ft. / 20 x 20 m
Surface: asphalt, in fair condition
Latitude: 40-13.671983N
Longitude: 077-05.315367W
Elevation: 454.0 ft.
Traffic pattern: leftleft
Markings: none, in fair condition

Heliport Ownership and Management from official FAA records

Ownership: Privately-owned
Owner: PRIVATE
180 KOST ROAD
MECHANICSBURG, PA 17055
Phone 717-795-4000
Manager: HAMPSHIRE REAL ESTATE
83 SOUTH ST
MORRISTOWN, NJ 07960
Phone 973-292-9595

Additional Remarks

FOR CD CTC HARRISBURG APCH AT 800-932-0712.

Instrument Procedures

There are no published instrument procedures at 72PN.

Some nearby airports with instrument procedures:

N94 - Carlisle Airport (5 nm SW)
KCXY - Capital City Airport (11 nm E)
KMDT - Harrisburg International Airport (15 nm E)
KTHV - York Airport (21 nm SE)
58N - Reigle Field Airport (24 nm E)
 
Loc | Ops | Rwys | IFR | FBO | Links
Com | Nav | Svcs | Stats | Notes
Area around 72PN (Distribution Center Heliport)
 
Road maps at: MapQuest Bing Google
 
Aerial photo
No photo
 
Sectional chart

 
Airport distance calculator
Flying to Distribution Center Heliport? Find the distance to fly.

From to 72PN

Sunrise and sunset
Times for 13-Aug-2020
 Local
(UTC-4)
 Zulu
(UTC)
Morning civil twilight05:5009:50
Sunrise06:1910:19
Sunset20:0600:06
Evening civil twilight20:3600:36

Current date and time
Zulu (UTC)  13-Aug-2020 05:59:03
Local (UTC-4)  13-Aug-2020 01:59:03
 
METAR
KCXY 
11nm E 
130456Z AUTO 00000KT 10SM CLR 26/20 A3007 RMK AO2 SLP181 T02560200 403390233
KMDT 
15nm E 
130456Z 00000KT 10SM FEW100 FEW200 OVC250 25/21 A3007 RMK AO2 SLP180 T02500206 403330233
KTHV 
21nm SE 
130553Z AUTO 00000KT 10SM CLR 22/20 A3008 RMK AO2 SLP182 T02170200 10256 20217 50002
TAF
KMDT 
15nm E 
130327Z 1303/1324 08005KT P6SM BKN250 FM131500 09007KT P6SM VCSH BKN050
NOTAMs
Click for the latest NOTAMs
NOTAMs are issued by the DoD/FAA and will open in a separate window not controlled by AirNav.

 

 
 

Would you like to see your business listed on this page?

 If your business provides an interesting product or service to pilots, flight crews, aircraft, or users of the Distribution Center Heliport, you should consider listing it here.  To start the listing process, click on the button below
 
Add a business
 

Other Pages about Distribution Center Heliport

Update a link
 
Copyright © AirNav, LLC. All rights reserved. Privacy Policy  Contact